Погода в Ургенче

Погода в Ургенче : погода сейчас, прогноз погоды и архив. Всё, что Вы хотите узнать о погоде в Ургенче!

Поиск расширенной информации на нашем сайте:

Другие новости

Новости СМИ2

Главная страница сайта

Новости сайта

03.07.2017

Напоминаем, что на нашем специализированном сайте Метеоцентр.Азия вы можете получить высокодетализированные автоматические прогнозы погоды по пунктам России, СНГ и мира в авиационном формате (включающие направление и скорость ветра, видимость, явления погоды, количество и форму облачности, нижнюю и верхнюю границу облачности).


Погода в Ургенче - сегодня

Время (UTC), дата Ветер
(°,м/с) 
Видим.   Явления Облачность Т
(°С)
Тd
(°С)
f(%) Тe
(°С)
Pmin
(гПа)
dP
(гПа)
Po
(мм)
O2
(г/м3)
Тmin Tmax R s Состояние
почвы
21 19.05.18 310 (СЗ) 4000 м    5/0 средняя 
[Ac trans]
+17.3 +6.8 50 +19  1018.1  -0.7  755  285           
00 20.05.18 360 (С) 4000 м    4/0 средняя 
[Ac trans]
+14.8 +6.5 58 +16  1018.2  755  287           
03 20.05.18 070 (В) 10 км    3/0 верхняя 
[Ci fib]
+21.5 +7.7 41 +22  1019.2  1.3  756  281  +14.1         
06 20.05.18 100 (В) 10 км    4/0 средняя 
[Ac trans]
+29.4 +2.9 18 +29  1018.9  756  274  +14.1         
09 20.05.18 070 (В) 10 км    4/4 2000 м средняя 
[Cu hum|Ac trans]
+30.6 +1.7 16 +31  1017.6  -1.2  755  273           
12 20.05.18 070 (В) 10 км    8/0 средняя 
[Ac trans]
+31.6 -0 13 +32  1019.7  -1.1  754  272           
15 20.05.18 040 (СВ) 10 км    9/0 средняя, верхняя 
[Ac trans|Ci fib]
+27.6 +5.1 24 +28  1016.8  -0.1  754  275    +32       
18 20.05.18 330 (СЗ) 4000 м    4/0 средняя 
[Ac trans]
+21 +7 40 +21  1017.4  0.4  754  281    +32       
21 20.05.18 050 (СВ) 10 км    3/0 
+19.7 +5.8 40 +21    -0.7             
00 21.05.18 010 (С) 10 км    3/0 средняя 
[Ac trans]
+16.1 +6.2 52 +17  1016.8  -0.1  754  286           
03 21.05.18 040 (СВ) 10 км    1/0 средняя 
[Ac trans]
+21.9 +2.5 28 +22  1017.5  0.9  754  281  +15         
06 21.05.18 050 (СВ) 10 км    4/0 верхняя 
[Ci fib]
+28.7 -2.2 13 +29  1017  -0.2  754  275  +15         
09 21.05.18 080 (В) 10 км    4/0 верхняя 
[Ci fib]
+30.4 -3.3 11 +30  1015.6  -1.1  753  273           
12 21.05.18 030 (СВ) 10 км    8/0 верхняя 
[Ci fib]
+31.2 -5.4 9 +31  1015  -0.6  753  273           
15 21.05.18 350 (С) 4000 м    5/0 верхняя 
[Ci fib]
+26.6 +1.7 20 +27  1015.2  753  276    +31.8       
18 21.05.18 010 (С) 10 км    4/0 верхняя 
[Ci fib]
+17.4 +0.2 31 +18  1016.3  0.7  753  285    +31.8       
21 21.05.18 360 (С) 10 км    3/0 верхняя 
[Ci fib]
+17.4 -1.4 28 +19  1015.5  -0.8  753  285           
00 22.05.18 070 (В) 10 км    ясно 
+13.3 +0.9 43 +15  1015.7  0.2  753  289           
03 22.05.18 нст () 10 км    ясно 
+21.8 +0.4 24 +22  1016.3  0.8  753  281  +12.3         
06 22.05.18 350 (С) 10 км    ясно 
+30.4 -3.3 11 +30  1016.6  0.7  754  274  +12.3         
09 22.05.18 350 (С) 10 км    ясно 
+33.5 -9.4 6 +34  1016.2  -0.4  754  271           
12 22.05.18 360 (С) 10 км    ясно 
+33.6 -8.6 6 +34  1015.5  -0.7  753  271           
15 22.05.18 310 (СЗ) 10 км    3/0 верхняя 
[Ci fib]
+28.1 -1.9 14 +28  1015.9  0.2  753  275    +34.2       
18 22.05.18 300 (СЗ) 10 км    3/0 верхняя 
[Ci fib]
+20 +0.6 27 +20  1017  0.8  754  283    +34.2       
21 22.05.18 310 (СЗ) 4000 м    3/0 верхняя 
[Ci fib]
+17.8 -0.2 30 +19  1017.2  0.1  754  285           
Время (UTC), дата Ветер
(°,м/с) 
Видим.   Явления Облачность Т
(°С)
Тd
(°С)
f(%) Тe
(°С)
Pmin
(гПа)
dP
(гПа)
Po
(мм)
O2
(г/м3)
Тmin Tmax R s Состояние
почвы

Для получения пояснительной информации подведите курсор к названию столбца.

ПОГОДА в Ургенче - архив

Всё, что Вы хотите узнать о погоде в Ургенче - удобно и подробно!

Выберите нужную дату (начиная с 1 января 2015* года) и нажмите кнопку "Найти".
Будут отображены архивные сводки погоды по пункту Ургенч, начиная с указанной даты.


Отображать данные в формате CSV (для использования в таблицах Excel)


Внимание! Наш архив погоды предназначен исключительно для личного некоммерческого использования в познавательных целях. Если Вам необходимы официальные справки о состоянии погоды (для производственных, юридических, коммерческих и т.п. целей), обращайтесь в органы Росгидромета.

*Примечание: данная дата относится к архиву по метеостанциям СССР (Россия, СНГ, Балтия).
Архив по метеостанциям Зарубежной Европы и Азии (кроме Китая) хранится 10 дней, по другим регионам земного шара (Китай, Африка, Америка, Австралия, Океания) - 1 день.

Ургенч - район местоположения метеостанции


Название, широта, долгота, высота метеостанции:
Ургенч 41.6°ш. 60.6°д. 101 м над ур. моря [Узбекистан]

Дополнительная информация

В oтличие oт бoльшинства пoгoдных сайтoв мы публикуем пoдрoбную метеoинфoрмацию в детальнoм прoфессиoнальнoм фoрмате.

Характеристики температуры и влажнoсти вoздуха измеряются на высoте 2 м в тени вдали oт зданий и деревьев.
Скoрoсть ветра измеряется на высoте 10 м (на урoвне рoста челoвека скoрoсть ветра ниже в 1.5-2 раза). Если метеoстанция нахoдится в гoрoде или в лесу, тo скoрoсть ветра занижена на 2-4 м/с пo сравнению с oткрытым местoм. Скoрoсть ветра над акватoриями крупных рек и oзёр, а также на вершинах хoлмoв на 2-5 м/с выше, чем в oбычных услoвиях.
Атмoсфернoе давление в разных тoчках местнoсти мoжет значительнo oтличаться oт давления на метеoстанции, в зависимoсти oт услoвий рельефа (при пoдъёме на 10 м давление пoнижается примернo на 1 мм рт.ст.).